Location: Kawakawa
(35.3830°S, 174.0670°E)
Time: 17:37:37
(UTC+12:00)

Cosmos 1741 Rocket - Pass Details

Date: 15 August 2020
Orbit: 761 x 783 km, 74.0° (Epoch: 25 September)

Event Time Altitude Azimuth Distance (km) Brightness Sun altitude
Rises 19:07:39 0° 192° (SSW) 3,259 7.3 -15.9°
Reaches altitude 10° 19:10:07 10° 187° (S) 2,324 6.5 -16.4°
Maximum altitude 19:15:15 52° 111° (ESE) 950 4.1 -17.5°
Drops below altitude 10° 19:20:20 10° 34° (NNE) 2,295 6.2 -18.5°
Enters shadow 19:20:30 - 33° (NNE) 2,355 6.2 -18.5°
